Location: Unspecified
(51.0000°N, 12.0000°E)
Time: 07:45:14
(UTC+02:00)

Envisat - Visible Passes

Search period start: 25 April 2019 00:00
Search period end: 05 May 2019 00:00
Orbit: 764 x 766 km, 98.2° (Epoch: 24 April)

Date Brightness Start Highest point End Pass type
(mag) Time Alt. Az. Time Alt. Az. Time Alt. Az.
25 Apr 6.0 21:22:18 10° WSW 21:24:22 12° W 21:26:28 10° WNW visible
28 Apr 5.8 21:10:02 10° WSW 21:12:59 15° W 21:15:57 10° NW visible
03 May 6.1 21:25:57 10° WSW 21:27:31 11° W 21:29:06 10° WNW visible
